Regional Weather Roundup
Issued by NWS

Home | Current Version | Previous Version | Graphics & Text | Print | Product List | Glossary Off
Versions: 1 2 3 4 5 6 7 8 9 10 11 12 13 14 15 16 17 18 19 20 21 22 23 24 25 26 27 28 29 30 31 32 33 34 35 36 37 38 39 40 41 42 43 44 45 46 47 48 49 50

000
ASUS43 KFSD 051410
RWRSD

WEATHER ROUNDUP FOR SOUTH DAKOTA
NATIONAL WEATHER SERVICE SIOUX FALLS SD
900 AM CDT THU MAY 05 2016

NOTE: "FAIR" INDICATES FEW OR NO CLOUDS BELOW 12,000 FEET WITH NO
SIGNIFICANT WEATHER AND/OR OBSTRUCTIONS TO VISIBILITY.


SDZ001>005-009-010-012>017-051500-
NORTHWEST AND NORTH CENTRAL SOUTH DAKOTA

CITY           SKY/WX    TMP DP  RH WIND       PRES   REMARKS
BUFFALO          N/A     56  46  69 CALM      29.88S
FAITH            N/A     59  41  51 S21       29.93F
MOBRIDGE       SUNNY     59  47  64 SE10      29.93F
$$

SDZ012>016-024>037-041>051-057-063-072>074-051500-
SOUTHWEST AND SOUTH CENTRAL SOUTH DAKOTA

CITY           SKY/WX    TMP DP  RH WIND       PRES   REMARKS
RAPID CTY ARPT SUNNY     56  45  66 SE5       29.96S
PIERRE         SUNNY     59  45  59 SE7       29.98S
CUSTER         SUNNY     63  42  46 CALM      30.08S
ELLSWORTH AFB  SUNNY     58  45  60 VRB2      29.95F
PHILIP         SUNNY     61  44  53 S9        29.97S
PINE RIDGE     SUNNY     61  43  51 SW10      30.01F
WINNER         FAIR      63  42  46 SW14      30.02F
$$

SDZ004>011-016>023-039-040-051500-
NORTHEAST SOUTH DAKOTA

CITY           SKY/WX    TMP DP  RH WIND       PRES   REMARKS
ABERDEEN       SUNNY     58  43  57 S8        29.98S
WATERTOWN      SUNNY     57  42  57 S6        30.01S
BROOKINGS      SUNNY     55  40  56 S6        30.03S
SISSETON         N/A     68  40  35 W12       29.94S
$$

SDZ017-020-022-023-036>040-048>070-051500-
SOUTHEAST SOUTH DAKOTA

CITY           SKY/WX    TMP DP  RH WIND       PRES   REMARKS
SIOUX FALLS    MOSUNNY   57  46  66 CALM      30.05F
HURON          SUNNY     58  45  62 S6        30.00F
CHAMBERLAIN    SUNNY     60  47  61 SW7       30.02F
MITCHELL       SUNNY     59  45  59 SW5       30.04S
YANKTON        SUNNY     55  43  62 SW6       30.06F
$$

ABBREVIATIONS USED IN REMARKS
   TC - TEMPERATURE IN CELSIUS
  WCI - WIND CHILL INDEX
   HX - HEAT INDEX
  VSB - VISIBILITY





USA.gov is the U.S. government's official web portal to all federal, state and local government web resources and services.